Regional Weather Roundup
Issued by NWS

Home | Current Version | Previous Version | Graphics & Text | Print | Product List | Glossary On
Versions: 1 2 3 4 5 6 7 8 9 10 11 12 13 14 15 16 17 18 19 20 21 22 23 24 25 26 27 28 29 30 31 32 33 34 35 36 37 38 39 40 41 42 43 44 45 46 47 48 49 50
637
ASUS43 KBIS 311310
RWRND

NORTH DAKOTA REGIONAL WEATHER ROUNDUP
NATIONAL WEATHER SERVICE BISMARCK ND
800 AM CDT TUE MAY 31 2016

NOTE: "FAIR" INDICATES FEW OR NO CLOUDS BELOW 12,000 FEET WITH NO
SIGNIFICANT WEATHER AND/OR OBSTRUCTIONS TO VISIBILITY.


NDZ001>003-009>011-017-311400-
NORTHWEST NORTH DAKOTA

CITY           SKY/WX    TMP DP  RH WIND       PRES   REMARKS
WILLISTON      LGT RAIN  52  49  89 W14       29.72F
MINOT          LGT RAIN  53  49  86 W22G31    29.66F
MINOT AFB      RAIN      51  48  90 W23G33    29.65S FOG
$$

NDZ018>021-031>035-040>046-311400-
SOUTHWEST NORTH DAKOTA

CITY           SKY/WX    TMP DP  RH WIND       PRES   REMARKS
BISMARCK       SUNNY     51  45  79 W18G25    29.77F
DICKINSON      CLOUDY    46  44  93 W17       29.77F
GARRISON         N/A     50  47  89 W16       29.71S
HETTINGER ARPT CLOUDY    49  44  83 W21G28    29.86F
$$

NDZ004>008-012>016-024-026-027-054-311400-
NORTHEAST NORTH DAKOTA

CITY           SKY/WX    TMP DP  RH WIND       PRES   REMARKS
GRAND FORKS    CLOUDY    61  57  87 S13       29.68F
GRND FRKS AFB  CLOUDY    60  59  94 S13       29.68S
DEVILS LAKE    CLOUDY    58  55  90 SW15      29.66R
$$

NDZ022-023-025-028>030-036>039-047>053-311400-
SOUTHEAST NORTH DAKOTA

CITY           SKY/WX    TMP DP  RH WIND       PRES   REMARKS
FARGO          PTSUNNY   62  57  83 S15       29.72S
JAMESTOWN      CLOUDY    56  51  84 W17       29.72R
$$





USA.gov is the U.S. government's official web portal to all federal, state and local government web resources and services.